This demonstration page uses our WeatherBlox Daily Observations layout. Learn more.

Left ArrowRight Arrow

39.08367, -84.50855

Hourly Observations for June 11, 2015

Temp ( °F °C ) Dew Point ( °F °C ) Humidity (%) Winds ( mph kmh ) Pressure ( in mb ) Visibility ( mi km ) Precip ( " mm )
12:53 am 00:53 Clear 68 20 64 17.8 87 87 N N/A 29.88 1012 10 16 N/A
1:53 am 01:53 Clear 67 19.4 63 17.2 87 87 N N/A 29.88 1012 10 16 N/A
2:53 am 02:53 Clear 65 18.3 64 17.8 97 97 N N/A 29.88 1012 9 14 N/A
3:53 am 03:53 Clear 63 17.2 63 17.2 100 100 N N/A 29.89 1012 7 11 N/A
4:53 am 04:53 Clear 64 17.8 63 17.2 96 96 N N/A 29.89 1012 7 11 N/A
5:53 am 05:53 Clear 64 17.8 63 17.2 96 96 N N/A 29.90 1013 7 11 N/A
6:53 am 06:53 Sunny 63 17.2 62 16.7 97 97 N N/A 29.92 1013 10 16 N/A
7:53 am 07:53 Sunny 66 18.9 65 18.3 96 96 N N/A 29.93 1014 10 16 N/A
8:53 am 08:53 Sunny 72 22.2 65 18.3 79 79 N N/A 29.94 1014 10 16 N/A
9:53 am 09:53 Sunny 78 25.6 67 19.4 69 69 S 6 9 29.95 1014 10 16 N/A
10:53 am 10:53 Sunny 83 28.3 69 20.6 63 63 SSW 8 13 29.93 1014 10 16 N/A
11:53 am 11:53 Mostly Sunny 86 30 68 20 55 55 SSW 12 19 29.93 1014 10 16 N/A
12:53 pm 12:53 Partly Cloudy 87 30.6 64 17.8 46 46 SSW 8 13 29.92 1013 10 16 N/A
1:53 pm 13:53 Partly Cloudy 88 31.1 65 18.3 46 46 S 10 17 29.90 1013 10 16 N/A
2:53 pm 14:53 Mostly Sunny 90 32.2 65 18.3 44 44 SW 13 20 29.89 1012 10 16 N/A
3:53 pm 15:53 Partly Cloudy 90 32.2 66 18.9 45 45 VRB 7 11 29.88 1012 10 16 N/A
4:53 pm 16:53 Partly Cloudy 91 32.8 65 18.3 42 42 SSW 10 17 29.86 1011 10 16 N/A
5:53 pm 17:53 Sunny 89 31.7 64 17.8 43 43 SSW 12 19 29.86 1011 10 16 N/A
6:53 pm 18:53 Sunny 88 31.1 65 18.3 46 46 SW 10 17 29.85 1011 10 16 N/A
7:53 pm 19:53 Mostly Sunny 84 28.9 67 19.4 57 57 S 6 9 29.85 1011 10 16 N/A
8:53 pm 20:53 Sunny 80 26.7 67 19.4 64 64 S 5 7 29.87 1011 10 16 N/A
9:53 pm 21:53 Clear 78 25.6 66 18.9 67 67 SW 3 6 29.87 1011 10 16 N/A
10:53 pm 22:53 Clear 73 22.8 68 20 84 84 N N/A 29.88 1012 10 16 N/A
11:53 pm 23:53 Clear 72 22.2 67 19.4 84 84 S 5 7 29.88 1012 10 16 N/A

Powered by AerisWeather